CAPE
0 0 0 0 0 0 0 0 0 0 0 0 0 0 0 0 0 0 0 0 557 700 791 810 947 878 820 749 687 641 920 1254 1434 1433 1368 1373 1445 1472 1434 1394 1316 1190 1094 923 926 987 987 979 940 913 868 813 749 1097 1308 1453 1452 1384 1314 1324 1291 1183 1101 1022 924 752 636 644 677 686 635 573 633 580 699 684 671 833 869 864 803 928 1099 1185 1398 1383
0 0 0 0 0 0 0 0 0 0 0 0 0 0 0 0 0 0 0 132 457 648 560 762 774 820 792 777 726 591 820 1081 1238 1318 1330 1306 1344 1463 1488 1459 1408 1347 1219 1098 993 982 1078 977 867 827 814 799 754 1055 1281 1401 1418 1327 1292 1325 1321 1236 1119 1020 857 708 699 702 729 693 643 586 620 654 774 746 752 876 1009 1067 1115 1193 1360 1483 1306 1639
0 0 0 0 0 0 0 0 0 0 0 0 0 0 0 0 0 0 0 16 363 388 464 454 598 613 596 575 554 541 729 852 1056 1149 1192 1210 1221 1326 1447 1468 1430 1382 1366 1281 1175 1074 981 1088 1060 879 847 811 756 930 1230 1333 1385 1402 1326 1311 1296 1220 1104 969 801 736 709 693 782 659 633 531 651 722 838 781 841 1039 998 1169 1217 1350 1551 1750 1595 1477
0 0 0 0 0 0 0 0 0 0 0 0 0 0 0 0 0 0 0 331 556 467 615 433 389 382 387 333 274 354 525 723 844 1051 1133 1162 1164 1165 1285 1385 1409 1404 1392 1362 1303 1199 1109 1027 1014 1053 953 777 776 763 1124 1262 1345 1376 1361 1328 1272 1192 1058 919 986 1047 781 799 801 698 717 607 712 744 960 927 921 928 957 1078 1201 1234 1517 1805 1919 1744
0 0 0 0 0 0 0 0 0 0 0 0 0 0 0 0 0 0 0 88 586 517 255 0 286 294 220 118 72 653 672 730 876 931 1016 1135 1129 1095 1116 1176 1250 1394 1441 1412 1324 1196 1077 1044 1040 1015 975 818 807 772 939 1158 1270 1316 1332 1304 1257 1195 1051 912 1066 1077 843 1033 872 838 798 849 843 944 1002 953 942 913 1062 1082 1063 1192 1364 1748 1991 1887
0 0 0 0 0 0 0 0 0 0 0 0 0 0 0 0 0 0 1 254 390 554 286 0 0 0 0 0 0 289 628 900 934 986 989 969 1011 1050 1056 1098 1137 1168 1183 1272 1265 1110 1060 1110 1052 1018 964 883 848 795 761 1014 1180 1235 1259 1259 1228 1185 1063 891 956 981 904 1015 878 867 885 788 807 832 890 889 928 940 992 1240 1057 1049 1275 1679 1944 1882
0 0 0 0 0 0 0 0 0 0 0 0 0 0 0 0 0 0 0 8 90 144 273 0 0 0 72 81 125 444 794 880 950 990 1018 1002 1002 981 984 1013 1036 1028 1020 1002 1012 1035 1074 1184 1136 1053 1041 924 939 865 878 850 1042 1179 1212 1209 1202 1175 1106 918 761 884 1027 919 878 869 906 821 758 750 868 880 896 910 980 1121 1142 1030 1256 1613 1885 1910
0 0 0 0 0 0 0 0 0 0 0 0 0 0 0 0 0 0 0 0 0 0 0 0 0 0 0 0 404 703 739 945 970 986 1004 1014 1033 1040 1033 1032 1012 980 891 932 1049 1113 1108 1221 1201 1146 1024 875 960 1032 1053 1012 943 1082 1179 1199 1189 1162 1115 992 677 668 938 884 842 825 823 873 748 662 738 845 882 865 1026 1045 1112 1038 1274 1600 1787 1864
0 0 0 0 0 0 0 0 0 0 0 0 0 0 0 0 0 0 0 0 0 0 30 0 0 6 0 0 504 1075 898 897 883 863 864 891 1013 1049 1029 1029 1044 1022 993 1073 1095 1182 1197 1230 1265 1195 1121 1038 1146 1227 1231 1150 1004 913 1111 1180 1176 1157 1110 1055 938 656 824 960 717 731 746 832 840 696 711 855 999 930 1197 926 1094 1127 1291 1560 1702 1743
0 0 0 0 0 0 0 0 0 0 0 0 0 0 0 0 0 0 0 0 0 0 0 0 0 24 0 0 69 1118 1053 944 876 778 728 754 870 924 975 990 994 978 1081 1230 1174 1158 1255 1259 1288 1260 1214 1267 1340 1360 1282 1131 884 730 989 1142 1182 1163 1124 1066 996 862 726 706 929 675 569 698 756 833 720 823 908 923 1013 992 1097 1226 1314 1502 1646 1668
0 0 0 0 0 0 0 0 0 0 0 0 0 0 0 0 0 0 0 0 0 0 0 0 0 0 1 0 17 607 552 656 564 625 688 785 872 862 896 971 999 1036 1161 1322 1345 1307 1292 1337 1373 1440 1505 1480 1406 1313 1175 983 798 687 804 1015 1139 1182 1153 1095 1034 936 800 748 656 662 620 543 650 698 658 740 828 888 976 1026 1097 1285 1343 1436 1588 1646
0 0 0 0 0 0 0 0 0 0 0 0 0 0 0 0 0 0 0 0 0 0 0 0 0 0 0 0 0 168 669 807 873 636 492 655 917 979 1037 1104 1162 1170 1214 1294 1408 1481 1519 1580 1607 1569 1480 1366 1285 1181 1068 961 916 894 866 914 958 1082 1153 1124 1075 982 893 767 701 686 679 618 523 636 631 693 785 854 984 1025 1134 1310 1376 1420 1543 1521
0 0 0 0 0 0 0 0 0 0 0 0 0 0 0 0 0 0 0 0 0 0 0 0 0 0 0 0 0 0 0 25 675 894 899 826 846 1006 1123 1232 1274 1288 1260 1350 1430 1548 1610 1610 1482 1309 1277 1354 1371 1276 1162 1119 1109 1105 1112 1193 1312 1384 1321 1190 1022 1038 984 880 767 654 688 679 442 442 597 651 696 796 944 1025 1161 1342 1396 1411 1466 1466
0 0 0 0 0 0 0 0 0 0 0 0 0 0 0 0 0 0 0 0 0 0 0 0 0 0 0 0 0 0 0 424 0 301 931 1035 1030 1012 1088 1280 1332 1386 1298 1380 1448 1492 1512 1450 1391 1351 1322 1357 1437 1527 1533 1474 1426 1405 1448 1516 1571 1637 1555 1369 1117 1015 934 890 770 673 637 626 546 508 550 610 635 737 865 1042 1137 1319 1407 1418 1479 1498
0 0 0 0 0 0 0 0 0 0 0 0 0 0 0 0 0 0 0 0 0 0 0 126 0 3 0 0 0 18 102 528 498 26 412 987 1126 1114 1208 1349 1371 1356 1271 1352 1298 1409 1453 1370 1219 1291 1387 1457 1495 1524 1515 1493 1522 1558 1586 1606 1638 1680 1697 1569 1398 1163 1082 942 807 788 750 691 597 765 573 548 683 747 850 1002 1098 1261 1399 1426 1466 1499
0 0 0 0 0 0 0 0 0 0 0 0 0 0 0 0 0 0 0 0 0 3 5 13 10 0 0 0 71 305 836 790 899 780 832 1022 1204 1272 1370 1493 1470 1344 1348 1445 1370 1218 1275 1273 1242 1252 1250 1290 1316 1333 1350 1460 1513 1514 1515 1535 1578 1618 1631 1591 1568 1485 1267 1098 1020 1002 763 709 647 948 677 532 620 779 809 951 1085 1223 1390 1420 1457 1441
0 0 0 0 0 0 0 0 0 0 0 0 0 0 0 0 0 0 189 5 0 0 1 99 156 0 0 0 240 575 717 768 841 1004 1028 1078 1205 1315 1406 1581 1658 1556 1560 1570 1438 1306 1241 1255 1275 1392 1468 1542 1510 1524 1540 1528 1528 1543 1616 1658 1612 1596 1559 1520 1465 1438 1307 1110 955 841 771 732 672 589 485 628 499 722 750 876 1008 1175 1353 1422 1418 1403
0 0 0 0 0 0 0 0 0 0 0 0 0 0 0 0 0 0 1 0 0 0 0 0 6 0 0 29 0 560 577 716 808 932 1050 1123 1197 1278 1305 1388 1628 1706 1714 1654 1573 1421 1300 1281 1396 1584 1632 1697 1773 1776 1759 1790 1835 1848 1809 1732 1650 1575 1514 1452 1370 1302 1220 978 776 806 881 794 784 685 535 582 590 503 727 824 951 1106 1298 1423 1379 1352
0 0 0 0 0 0 0 0 0 0 0 0 0 0 0 0 1 0 0 0 0 0 0 0 0 17 0 5 0 8 382 559 744 876 863 909 980 1027 1062 1157 1327 1446 1474 1430 1475 1469 1378 1314 1421 1678 1762 1804 1884 1949 1996 1985 1926 1811 1703 1646 1592 1531 1467 1428 1360 1270 1194 918 610 581 670 816 785 772 710 610 524 586 678 782 903 990 1218 1336 1384 1488
0 0 0 0 0 0 0 0 5 0 0 0 0 0 0 0 0 0 0 0 0 0 29 0 0 78 0 0 0 0 10 204 679 799 750 675 656 725 872 1068 1171 1188 1167 1192 1272 1353 1387 1375 1502 1735 1897 1928 1954 2021 2045 1914 1814 1733 1658 1587 1531 1505 1424 1322 1204 1080 995 853 745 655 564 485 709 810 776 729 523 490 617 760 872 961 1122 1242 1471 1396
0 0 0 0 0 0 3 0 4 0 2 0 0 0 0 0 0 0 0 0 0 0 0 0 0 0 0 0 0 0 0 16 476 652 592 549 546 618 773 948 1089 1040 1006 1043 1090 1084 1334 1564 1676 1829 1971 2045 2080 2051 1911 1778 1699 1641 1602 1549 1490 1436 1354 1207 1110 987 859 716 663 648 617 514 420 668 907 947 668 473 627 772 944 926 1010 1255 1275 1327
0 0 0 0 0 0 4 1 1 0 0 0 0 0 0 0 0 0 0 0 0 0 0 0 0 0 0 0 0 0 0 0 124 482 509 502 554 589 620 720 836 880 838 881 916 1236 1514 1671 1749 1898 2021 2087 2017 1924 1789 1714 1663 1582 1489 1435 1373 1242 1074 909 954 913 891 879 724 640 663 599 503 528 665 849 969 679 454 680 863 906 1121 1052 1155 1228
0 0 0 0 0 0 1 0 0 0 0 0 0 0 0 0 0 0 0 0 0 0 36 0 0 0 0 0 0 0 0 0 13 166 490 507 548 607 541 543 649 763 852 1034 1274 1436 1565 1694 1816 1932 2010 1974 1866 1782 1696 1651 1565 1484 1441 1339 1182 1036 922 810 823 831 793 780 715 518 532 514 530 493 426 608 852 792 596 798 882 930 1004 1010 1062 1117
204 0 0 0 0 0 0 0 0 0 3 6 1 0 0 0 0 0 0 0 0 0 3 0 0 0 0 10 159 90 7 0 0 15 404 471 524 561 596 597 583 654 916 1284 1385 1506 1605 1710 1832 1914 1933 1926 1824 1776 1725 1614 1520 1419 1363 1288 1145 1012 904 756 669 771 680 602 522 488 481 446 390 482 455 389 534 770 869 926 1028 1216 1208 1172 1196 1185
0 0 0 0 0 0 0 0 3 2 1 4 2 1 0 3 0 0 0 0 0 0 0 0 0 0 0 0 167 486 382 320 261 3 256 373 477 555 628 660 639 844 1084 1320 1445 1530 1620 1718 1814 1874 1875 1862 1854 1809 1787 1748 1530 1310 1257 1192 1086 1042 909 753 674 598 588 421 412 452 546 542 471 452 462 503 726 662 740 1033 1145 1273 1238 1218 1132 1082
0 0 0 0 0 0 0 0 0 2 7 19 11 5 0 0 0 0 21 0 0 0 0 0 0 0 0 0 206 465 160 244 346 371 364 402 496 582 667 661 822 1039 1164 1341 1465 1582 1666 1709 1731 1712 1696 1754 1833 1829 1827 1790 1584 1383 1274 1196 1135 1051 962 784 749 681 524 338 459 551 474 529 581 483 389 366 510 703 735 939 1172 1239 1268 1100 1071 1084
0 0 0 0 0 0 0 0 0 0 0 2 8 12 11 2 1 0 0 0 0 0 0 0 0 0 0 0 52 387 257 189 354 326 435 469 503 636 754 813 935 1130 1233 1320 1419 1514 1532 1545 1560 1555 1460 1414 1616 1802 1852 1820 1669 1508 1376 1263 1165 1117 1007 870 837 775 660 534 416 473 424 410 458 432 369 355 544 693 711 796 919 1056 1119 1134 1104 1093
0 0 0 0 0 0 0 0 0 0 0 0 0 4 2 6 4 0 0 11 0 0 0 0 0 0 0 0 0 97 319 263 156 17 320 520 611 787 908 1130 1488 1132 1194 1250 1295 1337 1340 1328 1254 1166 1110 1069 1191 1450 1653 1673 1644 1557 1451 1364 1319 1234 1078 956 926 879 703 532 455 458 526 668 443 476 538 725 797 739 719 834 974 1030 1100 1125 1138 1160
0 0 0 0 0 0 0 0 0 0 0 0 0 0 1 0 0 0 0 0 0 0 0 0 0 0 0 0 0 2 241 249 215 19 93 516 729 950 1022 1253 1219 1117 1101 1100 1158 1144 1122 1126 1095 1058 1081 1031 1059 1118 1196 1216 1402 1562 1544 1486 1527 1488 1287 1110 1031 980 845 678 559 529 534 555 656 618 719 826 892 830 864 901 861 978 1012 1044 1098 1103
0 3 87 0 0 0 0 0 0 0 0 0 0 0 0 0 0 0 0 0 0 0 0 0 0 0 0 0 0 0 10 147 120 95 366 673 853 1044 1086 1215 1306 1192 1110 1100 1101 1133 1212 1210 1156 1102 1118 1128 1044 1080 1064 1137 1109 1336 1536 1614 1644 1596 1496 1301 1170 1121 1007 929 894 741 705 646 689 801 768 841 836 886 983 958 902 981 1042 1060 983 901
0 8 168 7 3 0 0 0 0 0 0 0 0 0 0 0 0 0 0 0 0 0 0 0 0 0 0 0 0 11 28 264 263 231 329 524 895 1086 1157 1198 1361 1292 1194 1153 1136 1249 1310 1279 1216 1114 1090 1189 1124 1046 1252 1332 1141 1182 1516 1651 1716 1712 1600 1442 1354 1305 1207 1138 1053 1002 856 839 793 670 833 944 886 855 893 878 940 867 770 815 923 979
0 2 0 0 4 13 5 0 0 0 0 0 0 0 0 1 2 0 0 0 0 0 0 0 0 0 0 0 43 4 281 321 281 280 223 363 802 1172 1151 1228 1327 1299 1297 1204 1271 1357 1389 1381 1296 1138 1090 1204 1191 1216 1406 1428 1224 1135 1416 1699 1864 1825 1695 1466 1425 1388 1381 1295 1211 1040 1085 1022 861 816 721 645 680 691 668 780 879 928 922 996 950 966
0 0 0 0 0 4 8 2 0 0 0 0 0 0 0 0 0 0 0 0 5 0 0 0 0 0 0 0 74 226 359 382 355 305 284 131 752 1115 1154 1228 1298 1331 1307 1321 1338 1378 1427 1411 1332 1171 1117 1311 1304 1350 1481 1478 1265 1162 1411 1792 1956 1910 1810 1655 1583 1559 1444 1340 1231 1156 1100 1079 1132 920 949 901 774 723 731 680 784 834 841 918 988 1011
0 0 2 0 1 3 3 1 2 0 0 0 0 0 0 6 0 0 0 0 0 0 0 0 0 0 0 0 37 42 138 356 189 136 40 117 467 1052 1201 1249 1308 1296 1342 1326 1342 1357 1334 1357 1344 1227 1113 1364 1485 1544 1599 1495 1376 1289 1613 1940 2000 1933 1871 1738 1628 1536 1480 1428 1349 1275 1146 1027 1022 955 924 908 894 871 846 815 792 828 879 917 880 826
0 0 0 0 0 1 2 0 0 0 0 0 0 0 0 0 0 0 0 50 292 511 625 441 68 23 0 0 0 0 13 14 250 215 46 92 381 810 1090 1274 1293 1308 1288 1299 1315 1353 1387 1356 1324 1195 1126 1402 1594 1633 1649 1575 1493 1420 1737 1989 2010 1906 1820 1696 1614 1531 1501 1467 1446 1386 1269 1124 976 893 848 807 780 736 730 710 686 686 750 830 849 804
0 0 0 0 0 0 0 0 0 0 0 0 0 0 0 32 163 0 0 212 331 474 496 380 415 18 318 0 0 0 0 0 25 57 14 33 340 704 963 1135 1234 1209 1134 1115 1148 1218 1297 1275 1285 1129 1099 1442 1625 1581 1593 1564 1452 1424 1632 1849 1876 1798 1737 1682 1596 1572 1520 1486 1434 1365 1250 1087 956 853 809 785 818 822 794 743 715 732 739 750 762 737
0 0 0 0 0 0 0 0 0 0 0 0 0 72 287 350 270 278 0 47 147 512 599 623 394 376 298 0 0 2 31 65 130 35 0 10 124 641 856 965 1090 1094 996 921 998 1077 1178 1212 1232 1110 1168 1494 1598 1535 1480 1467 1426 1553 1621 1598 1606 1583 1549 1501 1492 1439 1364 1307 1287 1213 1100 984 885 849 840 876 904 867 808 740 685 692 718 719 716 692
0 0 0 0 0 0 0 0 0 0 0 0 22 277 362 285 469 365 0 0 441 956 852 728 575 477 367 0 31 37 298 147 115 16 0 0 22 490 810 888 996 976 886 811 874 976 1191 1254 1261 1188 1243 1518 1520 1524 1540 1516 1558 1712 1757 1770 1750 1773 1706 1609 1557 1554 1472 1376 1293 1155 1115 1117 1145 1104 1069 1017 976 980 958 850 744 742 746 779 826 856
0 0 0 0 0 0 0 0 0 0 0 224 308 375 345 160 401 446 0 0 381 1069 867 788 540 423 301 340 96 13 49 44 0 0 0 1 50 75 581 867 920 820 731 685 736 1039 1259 1338 1267 1258 1439 1551 1420 1548 1644 1700 1715 1905 2018 1957 1956 1963 1965 1877 1810 1820 1717 1566 1422 1358 1383 1412 1408 1422 1340 1233 1181 1147 1165 1129 1052 938 886 862 832 851
0 0 0 0 0 0 0 0 0 0 0 380 446 444 399 393 270 0 0 270 949 1017 753 610 543 382 372 38 1 6 1 14 0 0 150 194 0 46 354 599 786 748 668 604 846 1139 1266 1350 1510 1416 1510 1484 1523 1705 1692 1737 1787 2079 2171 2158 2150 2146 2168 2108 2016 1963 1928 1873 1794 1763 1730 1676 1588 1535 1508 1450 1341 1280 1211 1182 1123 1047 952 957 952 944
0 0 0 0 0 0 0 0 0 0 0 8 522 479 444 40 182 0 0 572 982 781 784 620 518 524 399 197 231 378 319 397 555 338 366 300 313 58 152 429 535 614 629 614 1066 1734 1406 1400 1448 1460 1503 1475 1631 1819 1766 1830 2009 2286 2268 2203 2224 2195 2209 2170 2115 2038 2015 1980 1904 1814 1770 1735 1657 1607 1522 1482 1445 1337 1256 1240 1266 1248 1213 1179 1116 1017
0 0 0 0 0 7 0 0 0 175 253 493 627 431 465 0 0 16 1350 921 851 755 570 559 552 488 529 591 675 541 596 710 746 636 201 302 0 2 265 428 487 649 996 1166 1458 1596 1479 1469 1535 1563 1563 1561 1725 1857 1866 2032 2228 2339 2298 2304 2286 2301 2273 2223 2192 2134 2067 1981 1840 1736 1654 1643 1605 1508 1462 1477 1460 1296 1273 1404 1388 1380 1262 1256 1190 1093
0 0 0 0 0 0 0 0 0 2 0 0 626 667 671 964 1081 630 1191 996 569 653 553 600 526 480 436 519 472 593 527 513 460 575 586 348 0 17 364 469 582 811 1208 1508 1772 1794 1528 1515 1606 1650 1602 1630 1735 1852 1947 2119 2386 2367 2382 2415 2307 2288 2301 2275 2263 2187 2077 1901 1737 1623 1481 1356 1358 1369 1391 1450 1474 1488 1562 1560 1485 1437 1332 1349 1331 1203
0 0 0 0 0 0 0 103 0 0 0 559 759 643 1201 793 948 814 1172 926 687 544 621 473 522 491 513 486 440 467 480 459 385 228 586 582 554 73 90 492 624 877 1204 1501 1653 1734 1802 1504 1547 1623 1674 1733 1757 1843 1888 1934 2278 2408 2451 2386 2271 2280 2278 2312 2295 2147 1914 1698 1448 1253 1057 1010 1076 1134 1180 1266 1402 1562 1650 1606 1461 1432 1379 1465 1459 1332
0 0 0 0 0 0 0 0 0 0 0 467 870 915 858 796 733 863 860 986 792 544 615 580 483 619 482 514 466 425 385 410 334 268 433 504 564 616 574 420 540 810 1083 1395 1658 1813 1860 1552 1485 1570 1750 1896 1882 1925 1966 1899 2011 2568 2495 2258 2183 2274 2325 2338 2269 1879 1574 1436 1348 1231 1130 1025 988 983 1142 1168 1190 1332 1366 1441 1438 1355 1327 1377 1397 1370
0 0 0 0 0 0 0 0 30 57 16 303 573 706 735 805 816 790 708 931 934 615 414 498 592 701 464 468 430 451 406 382 342 366 399 428 434 489 630 688 660 595 786 1072 1478 1781 1907 1643 1461 1570 1803 1924 2075 2076 2144 2128 2074 2624 2528 2136 2307 2422 2395 2377 2226 1755 1575 1557 1456 1349 1333 1278 1176 1161 1176 1128 1140 1187 1164 1206 1244 1279 1380 1413 1437 1433
0 0 0 0 0 0 0 0 0 2 56 301 385 489 462 488 569 721 586 583 787 773 573 371 403 448 418 384 410 470 501 476 393 322 155 338 402 426 502 684 786 779 776 1066 1340 1690 1921 1723 1489 1570 1757 1915 2110 2211 2300 2509 2419 2457 2476 2386 2422 2402 2368 2358 2093 1672 1608 1642 1468 1426 1401 1349 1250 1324 1336 1245 1287 1378 1485 1496 1506 1484 1477 1459 1437 1328
0 0 0 0 0 0 0 0 0 0 0 24 0 190 284 305 347 394 499 496 536 531 546 469 345 352 370 331 274 398 418 442 387 323 61 54 331 343 537 726 860 839 867 972 1301 1626 1883 1826 1518 1558 1712 1917 2092 2307 2449 2577 2598 2361 2488 2468 2369 2282 2200 2208 1865 1645 1642 1671 1585 1505 1488 1428 1476 1521 1482 1435 1450 1549 1588 1587 1553 1506 1444 1406 1371 1365
0 0 0 0 0 0 0 0 0 0 0 0 0 0 45 277 0 22 20 212 195 350 376 339 319 331 335 386 312 216 327 478 451 365 336 380 379 402 481 750 988 1078 1085 981 1248 1606 1818 1831 1647 1532 1668 1842 2000 2300 2530 2589 2591 2426 2262 2295 2204 2054 2057 1982 1825 1656 1658 1690 1714 1602 1592 1573 1524 1525 1516 1413 1529 1583 1451 1334 1366 1312 1273 1224 1258 1217
0 0 0 0 0 0 0 0 0 0 0 0 0 0 0 0 0 0 0 95 0 96 156 274 306 358 322 213 67 43 55 96 419 371 262 159 209 237 691 928 1109 1332 1399 1383 1143 1542 1794 1854 1764 1629 1661 1759 1882 2219 2510 2649 2650 2512 2262 2204 2090 1978 1909 1845 1779 1690 1708 1731 1725 1663 1587 1568 1555 1519 1514 1509 1515 1454 1211 1024 995 1046 1117 1142 921 907
0 0 0 0 0 0 0 0 0 0 0 0 0 4 0 0 0 0 0 0 0 0 0 58 214 622 456 380 507 655 430 711 696 89 271 50 79 342 835 989 1222 1418 1488 1451 1395 1470 1770 1876 1873 1793 1738 1733 1764 2010 2320 2456 2439 2228 2090 2124 2143 1933 1834 1779 1756 1666 1642 1633 1673 1634 1589 1483 1525 1551 1574 1534 1497 1335 1149 917 763 771 753 753 742 661
Wind_Speed
nan nan nan nan nan nan nan nan nan nan nan nan nan nan nan nan nan nan nan nan 13 11 10 12 9 9 11 10 11 15 18 18 12 13 13 9 9 9 9 10 9 8 7 7 6 7 6 6 6 8 9 10 12 14 16 15 13 12 12 13 10 10 11 12 12 12 11 8 6 5 3 1 3 4 5 5 7 8 9 8 10 12 13 14 16 15
nan nan nan nan nan nan nan nan nan nan nan nan nan nan nan nan nan nan nan 12 12 13 4 10 8 12 15 13 13 12 17 19 17 16 16 15 13 11 11 11 11 9 13 13 10 8 7 5 6 9 10 11 15 14 16 15 15 15 15 13 12 11 10 10 12 12 10 8 6 6 5 4 3 4 3 4 5 7 9 9 10 12 13 14 15 16
nan nan nan nan nan nan nan nan nan nan nan nan nan nan nan nan nan nan nan nan 10 10 4 9 13 14 15 14 13 17 20 14 13 17 18 16 14 12 11 11 10 11 11 12 11 10 9 8 6 9 11 10 12 15 15 15 18 17 14 13 13 12 11 11 11 12 10 9 8 7 7 6 5 6 5 5 5 6 7 10 11 12 12 12 14 15
nan nan nan nan nan nan nan nan nan nan nan nan nan nan nan nan nan nan nan 12 10 10 6 14 14 7 7 10 17 17 19 12 12 13 14 17 16 14 14 13 12 12 13 13 13 11 9 9 9 10 12 13 12 11 13 14 15 15 13 12 14 13 13 11 10 11 12 12 12 10 10 10 9 7 8 9 9 7 7 6 10 12 12 11 13 14
nan nan nan nan nan nan nan nan nan nan nan nan nan nan nan nan nan nan nan nan 8 7 13 nan 10 2 7 13 nan 11 14 15 13 14 14 14 15 14 13 12 12 13 14 14 13 11 11 11 11 13 14 14 12 9 10 12 13 13 13 13 14 14 14 13 11 12 14 14 15 15 14 14 14 14 11 11 10 8 7 9 9 11 11 11 12 13
nan nan nan nan nan nan nan nan nan nan nan nan nan nan nan nan nan nan nan 14 8 5 11 nan nan nan nan nan nan 12 11 15 15 18 15 15 15 15 13 12 12 12 15 16 15 14 14 13 15 16 15 14 11 8 7 9 11 12 13 14 15 15 13 13 12 15 14 13 16 17 15 13 11 11 9 6 6 10 10 10 13 13 12 11 11 12
nan nan nan nan nan nan nan nan nan nan nan nan nan nan nan nan nan nan nan nan nan 11 9 nan nan nan nan nan 14 10 12 14 14 16 15 14 14 13 13 13 14 15 15 14 14 14 14 14 17 17 15 14 11 8 9 8 8 9 13 16 17 15 13 11 13 15 14 14 14 16 16 14 11 11 9 9 10 10 12 14 14 14 14 12 12 12
nan nan nan nan nan nan nan nan nan nan nan nan nan nan nan nan nan nan nan nan nan nan nan nan nan nan nan nan 12 10 12 11 12 14 14 15 15 14 14 15 15 16 17 17 14 13 13 14 16 16 15 13 11 11 9 9 11 11 13 17 17 16 14 13 14 14 13 14 13 15 16 15 13 10 10 11 11 11 11 12 13 16 15 14 14 14
nan nan nan nan nan nan nan nan nan nan nan nan nan nan nan nan nan nan nan nan nan nan nan nan nan nan nan nan 11 13 13 10 11 13 13 15 17 16 16 17 16 16 17 17 15 12 12 12 13 16 16 15 14 12 10 10 12 13 16 17 17 17 16 15 13 13 13 14 14 15 16 16 14 12 11 11 11 11 11 11 13 15 15 15 14 14
nan nan nan nan nan nan nan nan nan nan nan nan nan nan nan nan nan nan nan nan nan nan nan nan nan nan nan nan nan 14 14 10 13 14 12 14 17 19 19 18 18 17 17 15 13 12 10 10 12 16 19 18 13 12 13 15 18 18 18 17 17 17 17 16 16 15 14 14 15 15 15 16 17 15 14 13 12 11 11 10 11 14 15 15 15 15
nan nan nan nan nan nan nan nan nan nan nan nan nan nan nan nan nan nan nan nan nan nan nan nan nan nan nan nan nan 20 17 18 15 12 13 14 14 16 17 19 19 19 18 17 15 13 12 12 15 17 18 17 16 16 17 17 16 17 17 17 17 16 17 17 18 19 16 14 15 15 16 16 18 17 16 15 13 13 13 11 11 14 15 16 16 16
nan nan nan nan nan nan nan nan nan nan nan nan nan nan nan nan nan nan nan nan nan nan nan nan nan nan nan nan nan 19 17 18 21 20 16 13 14 15 16 17 17 17 18 18 17 14 14 15 16 18 19 18 16 18 18 17 15 15 16 16 15 15 15 16 18 20 18 15 14 15 16 17 18 20 19 15 14 14 12 12 13 15 17 17 17 17
nan nan nan nan nan nan nan nan nan nan nan nan nan nan nan nan nan nan nan nan nan nan nan nan nan nan nan nan nan nan nan nan 23 22 19 16 14 16 16 16 15 15 17 18 16 16 15 15 17 18 19 19 18 16 16 16 16 15 15 14 12 10 12 14 18 18 19 17 15 16 18 19 20 19 19 18 15 15 15 14 15 16 16 17 17 18
nan nan nan nan nan nan nan nan nan nan nan nan nan nan nan nan nan nan nan nan nan nan nan nan nan nan nan nan nan nan nan 21 nan 22 21 19 18 16 17 16 16 15 16 16 16 15 16 16 16 18 19 18 16 14 15 15 15 15 13 12 10 9 13 14 18 21 19 17 17 18 21 22 21 20 20 19 17 16 16 16 15 16 17 17 17 18
nan nan nan nan nan nan nan nan nan nan nan nan nan nan nan nan nan nan nan nan nan nan nan 7 nan nan nan nan nan nan 20 19 19 nan 21 19 17 17 19 19 18 17 15 16 16 16 16 16 16 17 17 17 15 13 14 14 14 15 13 12 10 11 15 16 18 22 17 17 19 20 20 21 24 24 23 21 21 20 18 17 16 16 17 18 18 18
nan nan nan nan nan nan nan nan nan nan nan nan nan nan nan nan nan nan nan nan nan nan nan nan nan nan nan nan nan 18 20 19 17 20 20 19 18 18 18 19 18 17 18 18 18 17 16 17 17 16 17 17 17 15 15 15 15 15 14 14 13 13 15 17 18 19 17 16 20 21 22 22 24 26 25 25 24 22 20 18 17 16 17 19 20 21
nan nan nan nan nan nan nan nan nan nan nan nan nan nan nan nan nan nan 9 nan nan nan nan nan 7 nan nan nan 15 15 20 19 19 19 19 19 17 17 17 16 15 15 18 19 19 18 17 18 17 16 17 18 20 19 16 15 15 15 15 15 14 14 16 17 16 17 16 17 19 19 22 22 23 25 24 23 21 23 24 22 18 18 18 20 22 22
nan nan nan nan nan nan nan nan nan nan nan nan nan nan nan nan nan nan nan nan nan nan nan nan nan nan nan nan nan 15 18 19 19 20 18 17 18 19 18 16 15 16 16 17 18 18 18 18 17 17 16 16 18 18 17 15 15 15 15 15 13 14 14 15 16 16 16 17 16 17 19 19 20 21 20 22 23 25 27 25 22 21 21 21 23 23
nan nan nan nan nan nan nan nan nan nan nan nan nan nan nan nan nan nan nan nan nan nan nan nan nan nan nan nan nan nan 20 21 22 20 14 14 19 20 17 15 14 13 15 18 19 19 18 18 17 17 16 16 17 17 16 15 16 16 15 15 15 14 15 16 17 17 16 15 15 16 17 16 18 18 18 21 23 24 25 25 23 21 20 21 23 23
nan nan nan nan nan nan nan nan nan nan nan nan nan nan nan nan nan nan nan nan nan nan nan nan nan nan nan nan nan nan nan 22 22 19 19 19 21 21 20 18 16 16 16 17 18 18 17 17 17 18 18 18 18 18 17 17 17 17 18 18 16 14 14 14 16 16 15 15 15 14 14 13 15 16 17 18 21 23 23 24 24 22 21 20 23 22
nan nan nan nan nan nan nan nan nan nan nan nan nan nan nan nan nan nan nan nan nan nan nan nan nan nan nan nan nan nan nan nan 24 25 24 22 21 21 21 20 17 17 17 17 18 18 19 19 18 18 17 17 17 16 17 18 18 18 18 16 14 12 12 13 15 15 14 15 14 13 13 12 13 14 16 18 22 25 23 23 23 23 21 22 21 23
nan nan nan nan nan nan nan nan nan nan nan nan nan nan nan nan nan nan nan nan nan nan nan nan nan nan nan nan nan nan nan nan 21 24 25 23 22 21 20 19 18 17 16 17 18 20 20 19 18 18 17 15 15 15 15 16 17 16 14 14 12 10 10 12 14 13 11 12 13 13 13 13 14 14 15 16 19 22 24 22 22 22 23 21 20 21
nan nan nan nan nan nan nan nan nan nan nan nan nan nan nan nan nan nan nan nan nan nan nan nan nan nan nan nan nan nan nan nan nan 21 22 21 22 21 19 17 16 15 15 17 20 21 20 19 18 18 16 15 14 14 13 13 13 12 12 12 9 8 10 13 13 13 12 11 12 12 14 14 15 14 14 16 19 19 21 20 21 23 22 22 22 21
18 nan nan nan nan nan nan nan nan nan nan nan nan nan nan nan nan nan nan nan nan nan nan nan nan nan nan nan 19 nan nan nan nan nan 23 20 21 20 18 17 16 16 17 19 19 20 19 19 18 17 15 12 12 12 11 11 10 10 8 8 9 9 10 11 12 12 11 11 11 12 13 14 14 13 13 14 17 18 20 23 23 23 22 22 24 22
nan nan nan nan nan nan nan nan nan nan nan nan nan nan nan nan nan nan nan nan nan nan nan nan nan nan nan nan 17 19 15 15 16 nan 21 22 21 19 18 17 16 18 21 21 21 20 19 17 16 15 13 12 12 11 10 10 11 9 7 6 7 8 10 12 12 11 11 11 10 10 10 10 12 11 10 12 16 19 21 25 25 23 21 24 24 25
nan nan nan nan nan nan nan nan nan nan nan nan nan nan nan nan nan nan nan nan nan nan nan nan nan nan nan nan 16 17 15 12 14 18 19 23 22 18 17 17 18 21 22 22 21 20 18 15 12 11 11 10 11 12 11 11 11 10 8 7 8 8 9 11 13 12 11 10 9 9 6 7 7 6 9 18 24 22 24 24 24 23 23 23 24 28
nan nan nan nan nan nan nan nan nan nan nan nan nan nan nan nan nan nan nan nan nan nan nan nan nan nan nan nan nan 17 18 18 15 18 22 21 18 17 17 17 18 20 22 22 22 19 15 13 11 10 9 10 11 12 12 13 13 11 10 8 8 9 10 11 12 13 12 8 7 10 9 11 11 7 13 28 33 30 27 25 24 24 24 25 26 27
nan nan nan nan nan nan nan nan nan nan nan nan nan nan nan nan nan nan nan nan nan nan nan nan nan nan nan nan nan nan 19 18 16 nan 19 18 19 21 20 20 21 21 20 20 20 21 18 14 11 10 10 11 11 11 11 12 13 13 12 10 9 10 11 11 12 12 12 8 6 7 8 8 10 14 21 28 32 32 30 29 25 23 24 25 24 23
nan nan nan nan nan nan nan nan nan nan nan nan nan nan nan nan nan nan nan nan nan nan nan nan nan nan nan nan nan nan 25 24 25 nan nan 19 24 25 22 21 22 22 21 21 21 20 17 15 13 12 12 12 12 11 10 11 12 12 12 10 10 11 12 13 13 12 11 8 4 6 7 9 10 10 15 21 23 22 26 28 27 27 27 26 24 23
nan nan nan nan nan nan nan nan nan nan nan nan nan nan nan nan nan nan nan nan nan nan nan nan nan nan nan nan nan nan nan 23 23 nan 22 22 25 25 21 21 22 21 21 22 21 21 18 15 14 13 14 15 15 13 12 11 12 12 13 12 11 11 12 15 14 12 10 8 4 4 5 7 8 8 10 14 18 21 25 26 30 32 32 29 24 22
nan nan 37 nan nan nan nan nan nan nan nan nan nan nan nan nan nan nan nan nan nan nan nan nan nan nan nan nan nan nan nan 26 25 26 24 21 22 24 23 22 22 20 20 20 18 19 18 16 14 13 14 15 16 15 14 13 13 13 13 13 12 12 13 13 13 11 11 9 6 3 4 7 7 8 10 14 22 27 28 30 30 29 27 23 22 21
nan nan nan nan nan nan nan nan nan nan nan nan nan nan nan nan nan nan nan nan nan nan nan nan nan nan nan nan nan nan 27 27 26 24 21 18 20 22 23 23 23 20 19 19 18 17 18 17 16 15 16 15 15 15 14 14 14 13 14 13 13 12 13 12 12 12 11 11 10 7 3 4 9 11 13 14 16 18 21 23 24 23 21 20 22 25
nan nan nan nan nan nan nan nan nan nan nan nan nan nan nan nan nan nan nan nan nan nan nan nan nan nan nan nan nan 25 24 24 22 24 18 16 19 22 23 25 24 21 20 20 18 18 18 18 17 16 15 15 15 15 15 14 14 14 14 14 14 14 14 13 14 13 12 12 11 9 6 4 7 6 8 10 13 15 17 17 18 20 22 22 24 26
nan nan nan nan nan nan nan nan nan nan nan nan nan nan nan nan nan nan nan nan nan nan nan nan nan nan nan nan nan nan 25 23 25 22 nan 21 23 22 21 22 22 21 20 18 17 18 17 15 14 14 15 16 17 16 14 14 15 13 13 14 15 16 15 14 14 14 14 13 12 11 8 6 6 5 4 6 8 8 10 11 12 15 20 25 26 25
nan nan nan nan nan nan nan nan nan nan nan nan nan nan nan nan nan nan nan nan 28 27 27 25 nan nan nan nan nan nan nan nan 23 22 nan nan 23 24 26 25 22 20 20 18 16 16 16 15 15 15 15 16 17 16 15 13 13 12 13 14 16 16 16 15 14 14 13 14 13 11 11 9 9 7 5 6 6 7 7 7 10 10 13 17 20 20
nan nan nan nan nan nan nan nan nan nan nan nan nan nan nan nan 33 nan nan 23 21 23 25 25 24 nan 25 nan nan nan nan nan nan nan nan nan 22 24 25 23 20 19 18 18 19 18 16 16 18 19 18 16 16 16 16 15 14 14 14 14 16 15 15 15 15 15 14 14 14 13 13 12 11 11 8 6 5 5 5 7 8 8 9 10 14 15
nan nan nan nan nan nan nan nan nan nan nan nan nan nan 40 37 33 34 nan nan 22 23 24 22 20 25 24 nan nan nan nan nan 22 nan nan nan 22 20 23 22 21 18 17 16 19 19 17 16 16 17 18 19 18 17 17 15 15 14 14 14 13 14 14 14 14 14 15 15 15 15 14 14 14 12 12 10 6 5 5 7 8 8 8 7 9 10
nan nan nan nan nan nan nan nan nan nan nan nan nan 41 39 37 35 34 nan nan 32 30 28 26 21 21 22 nan nan nan 23 23 19 nan nan nan nan 18 16 15 13 12 13 15 15 14 14 15 16 17 19 21 20 18 17 16 16 15 15 14 13 13 13 13 13 13 14 14 15 15 14 14 14 13 13 12 11 7 4 7 8 8 7 7 7 8
nan nan nan nan nan nan nan nan nan nan nan 45 41 40 39 42 41 42 nan nan 39 39 36 33 31 28 28 26 nan nan nan nan nan nan nan nan nan nan 17 15 14 13 14 16 19 19 18 18 19 19 19 20 21 19 18 18 17 16 15 14 14 13 13 13 13 13 14 14 15 15 15 15 14 14 13 12 12 11 7 5 7 9 9 7 8 8
nan nan nan nan nan nan nan nan nan nan nan 50 44 44 43 45 44 nan nan 42 39 40 37 38 37 35 31 nan nan nan nan nan nan nan 19 15 nan nan 19 18 16 15 15 17 15 15 17 21 20 20 20 20 20 21 21 19 17 17 15 15 14 13 12 12 12 13 13 13 14 14 14 14 14 14 14 12 11 10 9 7 7 8 10 10 10 10
nan nan nan nan nan nan nan nan nan nan nan nan 44 41 43 nan 50 nan nan 43 38 36 36 34 32 34 35 37 37 34 28 24 21 20 20 18 22 nan 20 20 20 19 18 18 18 19 20 19 20 21 20 19 21 21 22 20 18 17 16 16 15 13 13 12 11 11 11 12 13 13 13 13 14 14 14 13 12 11 10 9 8 7 7 8 10 12
nan nan nan nan nan nan nan nan nan 48 47 44 43 41 41 nan nan nan 45 40 36 34 33 31 29 31 34 37 35 35 30 27 25 25 29 29 nan nan 24 26 27 26 24 22 21 20 18 17 17 19 20 20 21 21 21 21 19 17 17 17 16 14 12 12 11 10 11 11 12 13 13 13 12 12 12 13 13 13 12 11 9 8 7 6 7 9
nan nan nan nan nan nan nan nan nan nan nan nan 43 44 47 50 45 42 40 37 38 33 32 31 30 28 31 33 32 31 31 31 30 35 35 32 nan nan 27 29 30 29 28 27 24 19 18 17 17 18 21 21 21 21 21 22 21 18 16 16 16 14 14 14 14 13 12 11 11 12 13 13 13 12 12 13 13 14 13 13 12 10 9 9 8 7
nan nan nan nan nan nan nan 41 nan nan nan 42 46 46 42 45 43 42 42 38 38 36 34 32 31 29 30 31 30 31 31 29 31 38 38 36 32 nan nan 28 28 29 28 26 23 22 20 16 17 19 20 21 22 22 22 23 22 19 17 15 14 15 14 15 16 16 14 12 10 10 11 12 12 13 13 13 13 13 13 13 11 10 10 10 10 10
nan nan nan nan nan nan nan nan nan nan nan 39 42 41 42 42 43 39 43 40 38 37 37 33 31 31 30 31 30 30 33 32 31 33 38 35 31 29 26 26 27 25 25 24 22 22 20 18 19 20 21 21 22 22 22 21 21 20 17 15 17 17 16 16 16 16 15 13 12 11 11 11 11 13 13 12 13 13 13 12 11 11 10 10 10 11
nan nan nan nan nan nan nan nan nan nan nan 41 42 42 40 41 40 41 41 39 37 35 33 31 29 28 28 30 33 34 33 31 34 36 37 37 34 30 27 25 26 26 25 24 21 21 21 22 22 21 21 20 20 22 22 21 19 20 17 19 18 17 17 17 16 15 15 14 12 12 12 13 12 12 12 11 11 11 12 12 12 11 12 11 11 11
nan nan nan nan nan nan nan nan nan nan nan 37 38 39 40 39 40 41 39 35 31 32 31 30 30 29 29 30 32 32 34 36 39 39 36 37 36 33 30 27 24 25 25 23 23 24 22 24 25 23 21 20 19 20 21 21 18 16 19 20 19 19 18 17 17 15 15 14 13 13 14 14 13 12 12 11 11 12 13 13 13 13 13 13 12 12
nan nan nan nan nan nan nan nan nan nan nan nan nan 38 40 42 40 39 37 33 31 31 28 27 31 30 31 31 32 32 34 37 40 40 nan nan 35 33 30 28 26 25 24 24 26 28 25 22 23 25 23 20 20 19 19 20 19 18 18 19 21 20 19 17 17 16 15 15 14 14 15 15 15 15 13 13 13 14 14 14 14 14 14 14 14 14
nan nan nan nan nan nan nan nan nan nan nan nan nan nan nan 39 nan nan nan 34 33 33 32 32 32 29 31 30 32 33 36 37 37 36 36 35 34 33 32 29 28 25 25 26 26 28 26 23 21 22 24 21 21 20 18 18 19 20 19 19 20 22 20 18 16 17 16 15 15 15 15 15 16 17 16 16 15 15 14 13 13 13 12 11 13 14
nan nan nan nan nan nan nan nan nan nan nan nan nan nan nan nan nan nan nan nan nan nan 36 36 33 32 32 30 nan nan nan nan 36 36 36 35 35 34 33 31 30 30 29 27 27 27 26 24 23 22 22 23 23 21 19 18 19 20 20 20 20 21 22 20 20 19 17 15 15 15 16 16 16 18 17 18 18 18 17 19 19 15 12 12 13 13
nan nan nan nan nan nan nan nan nan nan nan nan nan nan nan nan nan nan nan nan nan nan nan nan 35 34 33 32 32 29 30 33 34 nan 37 nan nan 37 33 32 34 35 35 33 30 26 25 24 25 24 23 24 26 24 22 20 20 21 21 21 21 21 22 23 21 19 17 16 15 15 16 16 17 16 17 18 18 18 19 18 19 21 21 18 17 15
Wind_Direction
nan nan nan nan nan nan nan nan nan nan nan nan nan nan nan nan nan nan nan nan 322 302 357 354 19 55 71 42 11 12 6 5 1 3 360 352 342 329 323 324 323 325 331 282 283 294 311 312 295 269 258 269 275 274 277 276 277 277 276 268 264 258 268 279 284 288 296 298 298 292 309 223 190 201 203 187 179 177 173 170 165 163 159 159 155 155
nan nan nan nan nan nan nan nan nan nan nan nan nan nan nan nan nan nan nan 283 307 317 332 324 350 51 53 47 20 16 5 16 11 9 6 357 349 342 335 337 334 321 276 286 283 295 301 287 273 270 265 273 285 273 276 281 280 273 268 268 264 256 260 270 280 283 292 292 296 291 299 261 221 205 218 213 195 183 181 178 177 171 169 165 160 156
nan nan nan nan nan nan nan nan nan nan nan nan nan nan nan nan nan nan nan nan 300 314 20 301 345 40 52 52 33 18 14 12 358 354 354 336 333 335 334 335 331 304 304 299 306 307 315 308 286 276 276 283 291 286 282 272 270 266 262 262 264 263 258 260 271 272 280 283 275 272 269 273 236 194 203 222 221 213 198 186 184 180 177 169 162 158
nan nan nan nan nan nan nan nan nan nan nan nan nan nan nan nan nan nan nan 273 294 316 325 327 340 45 70 46 36 19 9 355 331 328 321 318 326 334 339 328 324 326 314 318 316 322 319 310 294 280 282 289 288 278 263 264 269 264 265 269 270 271 264 263 273 275 276 280 271 259 262 261 243 216 207 216 220 220 215 187 191 188 183 172 163 163
nan nan nan nan nan nan nan nan nan nan nan nan nan nan nan nan nan nan nan nan 291 315 317 nan 318 46 37 41 nan 351 354 355 346 327 314 308 314 311 300 302 316 326 317 311 308 310 311 306 302 294 285 286 295 286 262 263 273 271 284 278 279 274 274 269 269 274 269 269 267 262 256 251 245 231 221 213 203 202 199 199 197 196 193 181 171 171
nan nan nan nan nan nan nan nan nan nan nan nan nan nan nan nan nan nan nan 282 283 323 351 nan nan nan nan nan nan 4 347 351 349 348 340 319 315 306 314 326 309 305 302 309 312 313 312 305 287 283 283 286 288 286 266 275 299 293 273 265 266 263 267 275 291 282 279 278 276 276 274 277 269 268 262 251 224 207 202 197 203 207 202 192 183 180
nan nan nan nan nan nan nan nan nan nan nan nan nan nan nan nan nan nan nan nan nan 337 359 nan nan nan nan nan 4 353 354 2 347 347 343 325 324 323 327 320 313 308 297 291 289 288 289 284 279 278 284 286 289 280 262 271 294 283 258 253 257 258 262 267 272 276 271 273 275 286 285 284 285 280 272 265 250 235 216 210 209 209 207 199 193 189
nan nan nan nan nan nan nan nan nan nan nan nan nan nan nan nan nan nan nan nan nan nan nan nan nan nan nan nan 0 10 354 350 343 351 342 331 325 332 326 317 308 304 300 298 296 293 290 291 289 286 281 282 282 272 267 261 257 265 263 259 260 259 268 271 271 276 275 277 275 276 279 278 281 283 282 283 273 263 248 233 222 220 213 209 200 196
nan nan nan nan nan nan nan nan nan nan nan nan nan nan nan nan nan nan nan nan nan nan nan nan nan nan nan nan 353 336 336 327 349 356 351 331 327 331 329 320 308 301 303 301 293 293 301 304 292 273 272 266 266 269 272 262 257 258 256 261 261 265 267 268 278 280 276 270 274 276 275 275 269 274 268 266 266 268 266 262 244 238 229 221 212 204
nan nan nan nan nan nan nan nan nan nan nan nan nan nan nan nan nan nan nan nan nan nan nan nan nan nan nan nan nan 331 328 337 353 0 359 329 329 333 331 319 304 293 294 297 292 282 284 290 282 267 261 266 270 264 257 246 241 246 252 259 264 266 268 273 278 277 271 267 264 265 269 275 266 261 259 261 261 256 255 259 260 254 244 233 223 215
nan nan nan nan nan nan nan nan nan nan nan nan nan nan nan nan nan nan nan nan nan nan nan nan nan nan nan nan nan 328 343 341 348 342 341 324 323 331 327 316 307 298 296 294 283 274 272 267 270 269 272 270 263 258 257 254 251 252 257 260 265 270 270 274 276 276 276 266 263 268 271 274 272 267 260 260 258 251 245 240 242 246 249 243 234 226
nan nan nan nan nan nan nan nan nan nan nan nan nan nan nan nan nan nan nan nan nan nan nan nan nan nan nan nan nan 357 351 347 345 349 349 339 335 332 324 316 309 300 294 288 280 274 273 272 275 274 273 273 272 266 264 261 259 260 259 261 269 268 275 272 272 274 277 271 263 264 266 267 269 271 260 260 263 260 257 248 237 233 238 239 238 235
nan nan nan nan nan nan nan nan nan nan nan nan nan nan nan nan nan nan nan nan nan nan nan nan nan nan nan nan nan nan nan nan 350 345 351 347 342 328 320 318 309 303 299 297 288 277 274 280 283 282 277 272 273 276 276 273 269 266 266 269 275 274 269 268 269 275 279 277 271 263 261 257 255 260 262 259 256 258 256 251 245 240 235 235 236 234
nan nan nan nan nan nan nan nan nan nan nan nan nan nan nan nan nan nan nan nan nan nan nan nan nan nan nan nan nan nan nan 359 nan 352 349 343 339 327 310 311 310 313 317 314 307 296 289 284 279 276 278 279 275 273 275 275 273 272 272 273 274 267 259 256 256 263 273 282 278 266 262 264 266 264 265 261 256 256 255 254 255 250 243 239 233 235
nan nan nan nan nan nan nan nan nan nan nan nan nan nan nan nan nan nan nan nan nan nan nan 320 nan nan nan nan nan nan 1 358 356 nan 341 338 332 317 310 312 311 315 318 311 306 304 300 294 288 282 278 278 279 277 274 273 272 271 273 275 278 268 265 267 269 271 282 282 279 269 265 265 261 260 261 257 250 249 253 254 256 254 249 243 236 236
nan nan nan nan nan nan nan nan nan nan nan nan nan nan nan nan nan nan nan nan nan nan nan nan nan nan nan nan nan 348 349 340 335 333 331 334 329 322 319 321 320 317 312 307 302 300 296 293 288 280 275 275 277 278 273 275 274 275 277 277 279 281 275 276 279 278 284 284 278 275 268 265 260 255 252 247 244 243 246 249 253 255 252 246 242 238
nan nan nan nan nan nan nan nan nan nan nan nan nan nan nan nan nan nan 259 nan nan nan nan nan 323 nan nan nan 327 338 340 344 337 337 336 340 344 341 341 332 320 314 309 307 306 302 300 289 285 280 276 273 273 275 280 280 281 281 275 271 271 270 269 274 282 285 280 273 273 272 263 261 263 260 255 251 255 252 247 242 240 243 248 248 244 241
nan nan nan nan nan nan nan nan nan nan nan nan nan nan nan nan nan nan nan nan nan nan nan nan nan nan nan nan nan 335 342 351 350 348 350 355 353 356 352 338 332 327 320 311 305 299 298 293 289 284 281 282 281 282 282 282 276 270 267 270 273 274 283 286 289 290 284 282 279 273 269 266 269 265 252 239 242 246 246 242 237 234 238 246 245 241
nan nan nan nan nan nan nan nan nan nan nan nan nan nan nan nan nan nan nan nan nan nan nan nan nan nan nan nan nan nan 353 360 2 5 3 5 351 353 347 340 332 323 315 316 316 310 303 299 296 295 298 294 289 288 288 281 279 275 276 280 284 291 294 297 296 295 291 290 279 274 275 274 275 269 253 242 240 244 247 247 245 241 236 240 249 245
nan nan nan nan nan nan nan nan nan nan nan nan nan nan nan nan nan nan nan nan nan nan nan nan nan nan nan nan nan nan nan 360 3 9 16 8 354 351 351 347 341 335 330 325 321 316 308 299 298 305 307 305 300 295 292 290 288 294 292 292 289 285 285 291 298 300 298 297 293 290 287 282 275 281 275 255 242 243 246 246 248 248 238 236 243 246
nan nan nan nan nan nan nan nan nan nan nan nan nan nan nan nan nan nan nan nan nan nan nan nan nan nan nan nan nan nan nan nan 359 10 14 8 2 358 355 351 344 335 329 325 322 312 302 304 305 300 297 294 292 292 291 293 298 298 297 299 294 293 296 303 306 303 300 298 304 308 301 287 279 272 262 262 244 232 233 239 243 246 239 233 237 243
nan nan nan nan nan nan nan nan nan nan nan nan nan nan nan nan nan nan nan nan nan nan nan nan nan nan nan nan nan nan nan nan 3 6 11 8 2 359 353 350 343 338 331 324 314 308 312 308 301 296 295 295 297 296 299 297 295 298 301 298 292 292 305 312 308 306 300 292 293 298 287 278 269 268 271 268 256 241 231 228 236 242 241 235 234 241
nan nan nan nan nan nan nan nan nan nan nan nan nan nan nan nan nan nan nan nan nan nan nan nan nan nan nan nan nan nan nan nan nan 357 6 3 360 355 351 347 343 335 326 320 318 318 313 308 308 310 310 311 310 307 305 302 305 303 294 288 286 292 304 304 302 302 298 290 286 284 275 268 261 261 273 272 258 247 240 233 235 240 244 236 230 234
241 nan nan nan nan nan nan nan nan nan nan nan nan nan nan nan nan nan nan nan nan nan nan nan nan nan nan nan 321 nan nan nan nan nan 358 356 353 351 346 349 349 336 328 324 320 314 313 313 312 311 313 311 310 313 319 321 317 310 295 279 276 291 302 305 303 304 306 297 286 279 277 270 260 262 267 270 265 262 246 234 235 239 241 239 233 233
nan nan nan nan nan nan nan nan nan nan nan nan nan nan nan nan nan nan nan nan nan nan nan nan nan nan nan nan 306 310 322 338 346 nan 345 349 349 347 344 344 339 333 333 331 327 323 320 317 320 323 319 315 315 318 321 326 329 321 308 281 287 297 305 304 306 309 306 294 273 272 277 278 270 268 271 268 266 278 257 237 236 238 242 242 238 236
nan nan nan nan nan nan nan nan nan nan nan nan nan nan nan nan nan nan nan nan nan nan nan nan nan nan nan nan 304 307 311 326 336 336 344 342 344 345 341 337 332 332 338 337 332 330 332 330 323 320 322 315 314 314 314 315 316 320 310 299 301 313 310 310 309 316 313 298 267 256 262 269 265 262 273 268 255 263 264 243 234 237 237 242 246 243
nan nan nan nan nan nan nan nan nan nan nan nan nan nan nan nan nan nan nan nan nan nan nan nan nan nan nan nan nan 314 316 333 340 339 344 346 347 336 326 322 326 333 340 343 340 336 326 322 334 338 333 323 314 314 314 313 312 314 314 312 314 317 316 312 316 318 320 308 261 258 264 258 245 227 252 257 251 253 259 244 229 235 236 235 242 248
nan nan nan nan nan nan nan nan nan nan nan nan nan nan nan nan nan nan nan nan nan nan nan nan nan nan nan nan nan nan 321 329 337 nan 344 347 343 335 326 319 323 328 334 335 338 341 342 335 330 338 340 327 320 316 314 312 314 316 319 324 316 317 320 318 326 328 328 318 284 246 250 255 251 215 220 235 240 246 244 231 224 231 234 237 245 246
nan nan nan nan nan nan nan nan nan nan nan nan nan nan nan nan nan nan nan nan nan nan nan nan nan nan nan nan nan nan 322 330 340 nan nan 331 329 328 321 320 329 337 338 342 349 347 343 341 341 343 337 331 320 329 330 321 320 319 322 325 320 322 335 333 334 338 343 338 295 255 237 228 238 240 232 223 227 235 230 221 217 217 223 233 237 238
nan nan nan nan nan nan nan nan nan nan nan nan nan nan nan nan nan nan nan nan nan nan nan nan nan nan nan nan nan nan nan 316 314 nan 317 326 330 326 323 327 337 342 345 351 354 353 353 351 346 342 332 329 332 335 337 335 334 331 330 334 333 334 338 334 337 342 353 1 358 272 257 247 232 243 236 223 219 224 224 219 221 223 222 225 228 233
nan nan 252 nan nan nan nan nan nan nan nan nan nan nan nan nan nan nan nan nan nan nan nan nan nan nan nan nan nan nan nan 299 302 311 325 337 328 324 326 335 343 349 352 354 356 355 352 352 351 340 334 336 337 342 343 345 342 336 334 336 339 347 342 336 340 341 350 8 22 10 278 257 256 242 238 228 223 222 225 225 225 230 231 228 234 244
nan nan nan nan nan nan nan nan nan nan nan nan nan nan nan nan nan nan nan nan nan nan nan nan nan nan nan nan nan nan 297 305 315 317 326 337 332 326 329 336 343 349 351 353 356 356 347 350 350 349 346 342 342 344 347 348 345 339 346 341 348 346 341 340 348 349 348 353 4 19 329 250 225 238 235 230 236 240 242 234 229 229 230 231 230 232
nan nan nan nan nan nan nan nan nan nan nan nan nan nan nan nan nan nan nan nan nan nan nan nan nan nan nan nan nan 287 297 304 304 311 324 323 327 332 334 338 344 346 349 346 352 358 356 353 355 354 348 340 342 347 355 347 343 352 350 347 350 341 350 355 354 354 353 350 5 26 10 320 271 258 259 251 241 236 241 239 232 231 235 237 237 239
nan nan nan nan nan nan nan nan nan nan nan nan nan nan nan nan nan nan nan nan nan nan nan nan nan nan nan nan nan nan 297 305 313 325 nan 326 326 329 329 333 341 344 344 344 350 358 1 354 351 350 349 347 346 349 349 346 351 351 346 346 343 347 357 358 357 355 355 349 357 9 18 355 317 319 279 269 267 267 267 263 251 241 238 239 240 239
nan nan nan nan nan nan nan nan nan nan nan nan nan nan nan nan nan nan nan nan 261 258 255 258 nan nan nan nan nan nan nan nan 278 293 nan nan 316 323 328 330 336 339 345 348 354 1 2 360 355 343 339 344 344 341 340 345 345 337 343 345 351 355 355 358 356 356 352 350 352 354 0 359 355 352 313 289 291 290 284 275 263 261 247 242 240 233
nan nan nan nan nan nan nan nan nan nan nan nan nan nan nan nan 266 nan nan 271 266 264 264 262 264 nan 283 nan nan nan nan nan nan nan nan nan 312 316 315 322 330 331 340 349 353 3 0 357 357 353 347 341 336 337 341 344 339 342 351 353 355 356 356 353 353 354 349 348 350 353 356 354 355 3 356 320 296 288 284 269 260 255 248 242 232 225
nan nan nan nan nan nan nan nan nan nan nan nan nan nan 256 259 261 265 nan nan 270 259 254 247 242 269 277 nan nan nan nan nan 269 nan nan nan 304 306 316 321 325 330 339 342 344 357 357 348 345 340 331 336 336 335 339 336 337 339 343 352 357 355 356 354 357 355 352 350 350 353 351 351 356 359 358 354 337 311 275 261 257 246 242 235 235 233
nan nan nan nan nan nan nan nan nan nan nan nan nan 258 262 261 263 265 nan nan 258 247 249 238 231 247 269 nan nan nan 267 267 268 nan nan nan nan 304 299 297 297 303 319 329 330 334 329 325 322 324 327 330 334 337 332 331 333 333 338 347 347 349 354 359 2 357 351 349 351 353 349 349 349 354 356 356 1 351 294 255 247 247 241 229 225 227
nan nan nan nan nan nan nan nan nan nan nan 264 252 250 250 259 264 264 nan nan 258 247 245 243 236 244 260 266 nan nan nan nan nan nan nan nan nan nan 302 306 305 299 305 320 332 337 331 321 320 320 317 323 328 335 333 329 329 331 337 340 339 345 352 0 0 355 354 353 352 350 347 346 344 348 350 357 3 4 349 302 261 251 248 237 227 220
nan nan nan nan nan nan nan nan nan nan nan 255 250 250 251 254 260 nan nan 263 256 247 248 247 247 245 243 nan nan nan nan nan nan nan 261 258 nan nan 303 307 306 302 303 310 320 324 312 305 303 309 317 323 328 327 329 326 326 332 335 336 331 338 349 357 357 356 354 351 348 346 344 338 339 339 346 353 354 353 357 334 304 272 257 247 241 235
nan nan nan nan nan nan nan nan nan nan nan nan 244 244 250 nan 264 nan nan 264 256 251 253 254 252 250 249 246 246 241 243 247 245 249 250 259 272 nan 285 288 289 288 293 299 311 308 308 312 314 317 318 314 314 318 321 322 324 330 330 329 330 342 350 354 351 348 346 340 338 341 342 338 336 339 347 350 346 342 346 344 334 305 282 266 253 250
nan nan nan nan nan nan nan nan nan 251 254 250 238 247 254 nan nan nan 264 265 261 255 253 257 251 249 250 250 247 248 245 237 234 241 244 248 nan nan 286 286 280 278 277 283 293 301 305 308 308 300 298 302 308 311 313 317 323 324 328 327 337 346 341 331 332 332 330 330 332 333 337 337 334 335 334 338 338 336 339 338 335 334 335 316 285 273
nan nan nan nan nan nan nan nan nan nan nan nan 233 248 246 257 257 262 257 258 263 257 253 248 249 240 244 243 248 247 243 238 240 238 241 240 nan nan 277 283 284 284 283 281 288 296 298 303 310 310 306 302 304 305 308 311 319 323 328 333 343 335 324 318 313 316 321 329 326 327 324 323 334 330 326 329 331 328 331 328 331 333 327 332 328 321
nan nan nan nan nan nan nan 250 nan nan nan 244 245 252 249 256 258 257 258 252 251 255 250 246 242 241 237 239 235 242 245 236 234 238 241 241 238 nan nan 272 273 275 274 280 284 290 292 293 295 298 298 300 302 304 306 311 313 319 324 341 325 315 314 313 311 311 313 322 323 320 320 323 324 315 317 323 321 320 320 321 323 322 326 321 320 323
nan nan nan nan nan nan nan nan nan nan nan 247 251 251 250 251 252 253 253 255 253 250 254 248 243 234 236 233 227 234 236 236 233 240 246 246 244 237 245 263 271 269 267 274 281 283 287 297 298 294 294 297 301 302 305 307 308 311 322 320 310 314 311 309 308 309 313 316 315 312 310 307 312 309 308 315 316 316 314 318 318 317 315 316 314 312
nan nan nan nan nan nan nan nan nan nan nan 245 250 249 248 248 249 246 247 250 255 255 253 252 244 241 236 240 232 231 232 230 228 232 240 246 244 241 234 245 260 264 266 264 266 279 287 283 284 291 294 296 300 301 304 305 305 311 314 302 308 307 306 304 304 306 312 312 310 311 307 305 300 295 298 308 307 307 306 310 313 308 299 300 299 302
nan nan nan nan nan nan nan nan nan nan nan 249 247 247 251 251 246 242 244 251 250 248 244 248 252 243 238 237 237 231 226 227 226 229 235 237 238 237 236 233 238 257 265 270 268 265 271 283 288 291 294 298 300 301 302 303 303 300 296 301 301 301 300 300 301 298 300 304 306 306 305 307 303 300 300 306 302 298 298 298 299 301 302 298 299 299
nan nan nan nan nan nan nan nan nan nan nan nan nan 247 243 241 238 238 241 243 245 244 242 241 247 242 239 231 237 237 230 230 229 230 nan nan 230 233 234 237 235 238 254 267 269 273 271 273 284 290 292 293 293 297 299 299 301 297 295 293 293 294 294 295 296 295 297 297 296 300 302 303 309 305 297 298 294 290 287 288 295 299 303 305 303 301
nan nan nan nan nan nan nan nan nan nan nan nan nan nan nan 248 nan nan nan 234 238 242 237 233 242 242 238 228 227 232 231 229 233 232 232 229 229 231 232 231 234 239 245 256 268 274 278 276 275 282 289 286 283 288 292 294 292 292 292 289 287 288 290 290 289 283 284 286 284 290 294 299 300 294 294 288 280 274 275 282 294 296 294 287 290 299
nan nan nan nan nan nan nan nan nan nan nan nan nan nan nan nan nan nan nan nan nan nan 235 231 234 242 246 241 nan nan nan nan 223 228 227 232 234 234 230 227 226 231 243 253 257 268 272 271 269 269 276 276 278 282 283 283 283 284 285 285 283 284 285 283 280 279 282 284 283 285 287 291 291 291 292 290 287 285 278 264 264 264 276 289 284 269
nan nan nan nan nan nan nan nan nan nan nan nan nan nan nan nan nan nan nan nan nan nan nan nan 229 229 232 237 247 239 227 225 220 nan 223 nan nan 232 232 227 224 225 229 242 253 258 266 268 268 267 269 272 273 275 275 273 274 277 280 282 282 282 280 279 278 278 281 284 283 286 284 284 284 286 288 288 289 288 285 282 270 258 254 258 263 262